URSA MAJOR

Last updated on Fri Jul 21 2017 00:18:26 GMT+0000 (Coordinated Universal Time)

1 42776U 17036M 17200.93331558 .00001246 00000-0 60906-4 0 9998 2 42776 97.4482 260.3614 0015427 141.7759 218.4573 15.20001178 4017
UTC large
Height (km)
Speed (km/s)
/
Latitude / Longitude
Inclination (degrees)
Orbital Period (minutes)
Azimuth
Elevation
Range (km)
Doppler Factor

Next 0 passes for location: London (51.5072 / 0.1276)

Sorry there are no passes over London.